GFSWCAN_sfc_rhum_336.txt.gz
RH
75 76 75 77 81 81 80 82 87 85 80 78 76 76 76 77 81 63 46 48 49 41 34 38 34 35 36 34 29 33 28 24 23 22 17 15 16 16 17 16 18 24 24 18 20 23 25 15 15 20 28 29 31 30
77 79 74 77 81 82 82 82 86 87 81 78 77 76 76 77 80 78 47 51 52 54 40 39 35 33 34 31 30 30 29 31 20 21 18 16 20 19 22 17 20 25 15 15 14 14 25 23 27 29 27 35 36 35
78 79 79 79 80 82 83 84 86 86 82 79 78 77 77 79 80 78 62 66 58 57 40 40 38 36 32 32 28 35 26 26 33 41 32 26 40 28 23 22 18 21 28 27 23 20 23 26 30 30 30 31 36 29
76 77 78 80 81 83 84 85 85 85 82 81 80 77 78 80 79 78 65 64 72 81 70 38 31 38 33 31 34 31 30 35 37 38 32 30 27 27 22 24 36 17 36 31 28 26 24 27 30 30 27 24 30 29
80 79 80 82 82 82 83 86 86 86 83 81 79 79 79 80 82 66 62 67 66 72 61 50 42 36 34 37 40 38 32 36 36 35 33 32 24 28 28 25 25 19 25 25 20 18 28 32 33 31 27 24 25 26
83 82 82 83 82 82 84 86 86 86 84 81 80 81 81 83 85 58 58 60 67 78 99 95 44 45 41 44 44 44 38 37 36 36 36 34 29 33 28 25 19 14 14 15 19 17 21 26 26 21 23 21 20 20
84 84 84 82 83 83 85 87 85 86 85 82 83 83 84 87 64 60 62 73 77 87 98 91 61 41 43 44 42 41 39 43 40 42 41 36 35 40 36 36 22 18 18 18 15 18 24 19 18 16 17 17 22 17
85 84 84 84 84 86 87 86 85 85 82 82 84 86 88 90 84 74 55 81 76 88 97 92 56 54 57 63 66 41 45 48 51 46 41 41 35 38 52 35 29 27 27 24 22 20 18 18 18 17 16 18 19 18
86 86 85 86 88 88 87 86 87 86 85 86 86 87 71 90 92 70 76 79 72 82 95 78 66 69 54 58 74 69 57 77 44 54 46 46 46 55 46 45 40 34 34 32 28 26 23 23 23 20 20 18 19 21
84 88 87 88 88 88 88 88 87 86 89 88 77 65 70 78 78 84 98 99 99 99 97 96 50 60 50 62 80 87 97 96 98 86 59 81 64 44 40 38 39 40 36 35 38 39 33 32 28 26 24 23 23 25
86 89 88 89 88 88 89 89 90 90 86 60 75 81 67 74 69 91 87 93 93 95 81 71 64 77 82 88 93 84 94 93 98 86 80 69 52 42 41 40 41 37 36 34 34 34 34 34 30 28 27 28 26 26
88 89 91 89 89 89 90 90 89 71 56 75 73 68 58 69 71 70 80 86 83 69 62 73 90 94 92 87 96 93 95 94 96 80 93 78 43 56 56 61 65 64 61 55 46 45 40 38 34 33 30 29 28 27
88 91 92 93 92 90 89 89 91 88 88 73 83 79 82 85 97 79 74 92 73 52 67 93 97 97 97 95 96 97 98 94 81 97 88 63 51 55 59 58 60 60 63 67 66 57 50 46 38 35 35 31 30 32
93 94 93 93 93 90 89 88 88 84 86 82 77 99 90 90 88 60 54 63 70 82 91 88 92 98 96 99 97 99 92 89 98 100 97 51 74 70 78 71 72 72 69 67 65 62 58 54 46 42 37 35 34 36
91 92 93 91 90 87 90 88 86 84 87 85 80 86 71 56 59 62 64 64 58 59 67 82 75 75 93 96 96 96 94 91 74 68 68 51 82 90 89 89 84 79 68 52 47 50 53 55 49 45 40 37 37 38
90 89 93 93 90 90 91 89 88 91 96 96 92 78 70 89 88 88 90 90 85 79 77 87 86 84 93 94 96 95 97 97 74 60 53 80 92 92 92 93 82 54 50 48 52 61 60 57 49 45 41 40 39 41
89 82 91 89 90 89 93 95 97 95 93 86 94 85 88 94 96 96 94 92 96 97 96 93 96 90 94 96 90 83 92 73 57 64 79 93 95 95 95 94 89 68 58 63 75 72 63 48 43 44 49 48 38 38
67 69 83 87 83 79 85 97 96 93 93 90 97 94 96 96 95 94 95 97 98 97 93 93 89 91 80 82 74 71 85 83 80 90 95 95 95 96 97 95 93 79 60 57 57 53 49 47 47 42 46 43 47 58
76 76 86 89 85 92 96 94 97 94 89 95 98 98 97 97 94 93 96 97 98 97 98 97 95 92 86 72 80 78 72 78 90 94 96 93 91 95 96 96 96 85 66 61 54 45 44 52 38 38 48 74 88 92
91 85 89 89 86 97 94 95 98 98 95 96 98 98 97 97 97 98 98 99 99 98 99 96 92 90 90 94 94 96 93 94 98 98 98 93 91 96 98 98 98 96 96 89 88 96 94 93 96 96 95 96 97 94
77 72 83 80 95 96 96 96 96 97 98 99 96 98 97 97 98 97 97 98 99 98 97 91 75 88 91 77 93 98 99 99 98 99 99 99 97 99 98 92 94 96 98 98 95 99 98 99 99 97 96 98 97 97
64 82 82 93 96 95 99 96 98 97 99 96 97 97 97 96 93 92 97 98 98 98 98 98 95 78 84 93 90 96 97 95 98 99 99 99 99 99 99 99 97 98 99 99 99 99 99 99 98 96 95 96 96 95
83 88 88 90 91 90 88 95 98 91 98 93 94 95 93 94 95 98 99 98 97 96 98 96 95 92 96 91 96 95 88 97 99 98 98 99 98 96 95 94 96 98 97 99 99 99 98 100 98 96 95 94 92 89
87 92 93 87 86 91 77 91 91 97 94 92 92 90 87 94 98 98 98 96 98 98 96 98 94 98 95 95 98 98 98 98 99 98 97 92 87 88 78 73 75 82 83 86 96 97 96 95 98 90 88 89 91 92
90 85 85 100 73 91 94 87 76 74 71 70 76 76 76 79 89 94 96 97 98 97 98 99 98 98 99 98 98 98 95 99 97 85 71 64 54 58 76 66 70 76 69 69 79 82 93 90 87 90 85 81 82 87
96 75 92 80 92 93 82 88 76 80 79 54 52 47 69 81 87 94 97 99 99 99 99 99 99 98 98 99 99 99 99 98 99 95 82 68 59 59 66 62 65 71 67 69 69 70 74 73 73 73 83 84 89 72
86 75 72 76 86 91 87 77 77 80 55 59 59 56 67 88 92 97 99 98 99 99 99 99 99 99 99 99 98 97 93 88 82 81 63 52 50 51 58 65 68 65 60 63 65 67 72 73 74 76 79 72 68 66
77 80 87 80 86 77 87 80 72 59 59 59 49 59 82 90 96 97 98 98 100 99 96 96 97 98 99 98 96 97 94 80 57 64 65 44 44 46 52 54 56 88 60 64 60 64 66 68 70 68 69 73 74 66
76 68 84 87 75 74 72 71 63 66 77 69 56 58 61 57 70 85 83 71 79 91 92 92 92 87 75 78 84 73 49 49 61 61 55 48 48 48 44 47 49 46 45 53 95 83 76 73 71 68 64 60 56 57
83 82 86 72 66 64 70 69 70 68 61 71 70 70 62 56 45 42 44 46 47 44 43 51 55 53 53 52 56 56 48 47 49 50 55 53 50 43 42 40 40 40 41 42 47 60 88 65 68 60 62 62 62 63
96 92 88 78 67 66 67 62 46 41 43 66 66 62 58 66 40 43 48 45 39 39 38 39 46 64 86 82 67 61 52 44 49 49 41 34 34 40 35 33 32 32 33 33 34 35 36 39 43 46 47 50 51 50
83 82 78 63 63 61 51 53 48 52 51 49 46 71 66 45 51 42 42 41 40 39 54 42 40 43 41 40 52 62 92 66 69 58 50 38 37 35 33 31 30 31 33 33 33 33 35 36 36 38 39 42 42 43
80 82 75 70 62 55 55 51 48 49 49 57 63 65 43 49 64 63 43 37 42 39 41 38 34 36 42 42 44 41 55 39 58 91 88 92 96 71 35 30 29 30 31 32 33 34 36 39 39 41 41 41 41 41

GFSWCAN_sfc_rhum_339.txt.gz
RH
76 76 77 76 77 79 81 81 81 85 83 78 76 75 75 76 79 63 37 38 42 38 28 29 27 30 27 26 26 23 23 19 17 20 16 14 14 12 12 13 15 22 22 18 18 22 24 9 10 14 20 21 22 22
76 76 76 77 78 79 81 83 83 84 85 78 76 76 76 76 77 74 51 38 41 45 35 30 28 26 28 27 28 22 23 25 16 18 16 13 14 11 15 15 12 15 14 15 13 15 16 12 12 19 17 26 25 25
78 78 77 77 78 79 80 82 83 84 83 79 77 77 75 77 78 74 51 48 41 42 32 27 28 27 24 25 22 31 23 20 24 24 31 20 24 14 16 14 16 14 12 18 20 14 13 12 21 22 24 26 27 24
82 80 79 78 79 80 81 81 84 84 83 79 79 76 76 78 77 74 55 51 48 44 42 31 22 30 26 23 27 25 23 25 25 29 30 26 23 19 22 18 16 12 15 18 20 20 20 16 24 23 22 21 24 23
83 82 80 81 81 81 80 82 84 84 84 80 78 76 78 78 80 60 51 51 47 59 59 39 31 27 25 27 30 30 28 28 28 28 27 26 20 20 19 20 20 14 20 20 22 18 22 23 20 26 24 22 20 23
86 85 84 82 82 82 81 82 85 84 84 82 79 78 78 80 81 56 70 53 44 55 83 70 35 35 31 32 35 36 32 28 27 28 26 22 16 21 29 26 19 14 13 12 17 15 14 15 19 27 25 22 19 18
83 85 83 83 82 83 83 85 86 83 86 82 80 81 80 82 56 67 83 78 66 52 93 81 51 32 34 32 31 32 30 30 29 30 31 28 26 29 31 35 22 16 16 15 13 14 17 14 17 19 20 16 19 15
83 84 84 83 83 85 85 86 84 85 81 79 81 83 84 85 79 55 49 77 56 87 70 88 54 39 41 55 52 32 34 32 35 33 29 31 28 29 37 29 26 23 22 20 19 16 14 13 13 14 13 13 13 12
84 84 85 86 86 87 86 84 85 86 89 85 84 84 63 70 72 80 75 73 61 86 93 74 58 68 38 55 79 51 48 57 40 46 41 37 38 41 34 35 32 32 33 30 26 23 21 21 20 18 18 16 16 16
88 87 87 88 88 88 88 86 86 86 86 87 72 77 82 73 80 76 95 98 99 99 97 96 50 57 46 70 87 87 94 91 95 67 49 59 48 39 34 33 35 35 33 32 37 38 34 32 27 25 22 21 20 19
90 88 88 88 88 87 87 88 91 91 89 66 79 77 65 75 62 90 94 95 91 93 79 70 54 59 80 86 89 75 93 92 97 80 66 59 46 41 39 40 39 36 37 36 38 38 33 33 33 31 29 27 24 23
88 89 91 91 88 88 88 89 89 76 64 73 65 54 43 58 75 79 74 74 78 65 53 67 90 90 92 79 92 91 94 93 92 65 83 63 36 45 44 45 43 44 41 42 45 48 46 43 39 36 35 33 29 25
92 92 92 92 91 89 87 87 89 87 85 60 60 70 72 72 92 63 64 67 67 52 66 84 93 93 95 94 93 95 96 88 72 94 75 50 45 49 58 51 47 43 43 48 57 59 55 52 48 46 44 38 33 31
92 92 93 92 91 89 88 87 86 82 76 89 80 99 82 91 83 56 53 67 78 58 71 79 89 96 93 98 94 97 86 81 95 98 91 43 52 60 61 55 50 51 51 56 57 53 54 54 51 53 48 43 37 36
91 91 91 88 89 88 88 85 84 80 92 86 73 83 61 52 56 54 53 53 52 51 58 80 77 72 94 96 96 95 96 94 74 52 48 52 64 68 67 61 59 62 61 61 58 51 48 50 49 50 48 43 41 38
89 90 84 88 87 89 91 87 89 94 95 90 80 73 63 74 68 71 76 77 83 71 67 64 71 73 85 86 96 95 95 86 58 55 59 60 75 80 77 72 78 72 74 75 68 62 39 42 42 43 44 46 44 41
90 60 88 87 87 88 89 89 94 92 90 83 93 82 86 92 94 94 92 92 95 96 95 93 95 92 89 96 94 82 77 56 66 65 70 85 92 93 92 93 91 89 89 92 85 75 49 38 42 44 52 54 40 38
60 55 78 85 82 75 84 95 93 89 89 87 96 95 96 95 95 90 93 96 98 96 92 91 88 81 68 68 67 74 84 84 74 86 92 93 93 92 95 96 94 90 83 83 74 57 53 53 51 44 47 44 45 38
68 70 85 89 89 93 94 90 94 92 85 96 97 97 96 96 93 89 94 96 97 97 98 96 94 91 87 72 79 82 80 91 98 94 98 95 95 96 97 97 97 94 81 63 56 75 93 78 56 37 36 37 36 34
92 88 85 87 86 95 91 93 97 95 93 96 96 96 94 95 95 95 97 98 98 98 98 95 87 75 77 87 86 92 94 96 99 98 97 96 96 96 97 97 99 96 92 90 84 76 45 45 37 34 34 36 35 29
90 78 79 83 93 95 95 96 95 96 97 98 93 95 91 90 92 94 97 98 99 98 98 95 91 94 91 75 73 95 96 98 99 99 99 99 97 99 97 95 93 86 98 99 98 97 98 88 83 73 61 65 77 93
60 80 59 73 89 87 92 90 97 96 98 92 95 95 96 96 96 98 98 99 98 97 98 98 95 89 92 89 87 95 96 97 98 99 99 99 98 97 97 96 94 92 98 98 98 98 99 99 99 97 98 96 99 94
83 73 72 82 81 82 75 87 96 88 94 86 90 90 84 93 97 98 98 96 97 98 98 99 94 96 98 96 96 95 95 96 98 99 96 92 92 94 96 96 97 98 98 98 98 99 99 100 99 97 97 96 90 88
90 75 79 75 69 78 58 77 83 89 86 93 92 83 82 93 93 96 95 97 97 97 98 96 97 97 97 94 98 98 94 95 92 92 65 63 83 68 92 94 95 97 99 99 99 96 96 95 98 94 94 95 94 95
86 78 69 100 57 70 74 65 55 56 68 65 66 66 75 75 88 93 97 98 98 98 99 98 98 98 99 98 98 97 83 92 92 71 75 70 57 56 60 62 74 84 92 94 93 90 92 89 89 89 91 92 92 93
92 60 85 65 65 75 72 74 67 66 61 57 63 54 70 84 87 95 99 99 99 99 99 99 99 99 98 99 99 94 78 84 91 75 53 51 52 61 70 68 66 70 72 79 80 74 82 87 84 80 83 84 96 82
77 64 54 54 67 79 75 65 54 57 59 59 53 67 83 91 97 98 98 99 100 99 99 99 99 99 98 96 86 79 69 80 76 72 72 41 45 52 59 61 71 66 61 65 64 69 78 79 78 80 82 76 74 83
58 62 74 61 71 61 76 52 48 51 50 40 40 56 80 82 86 89 96 84 90 88 91 91 89 79 80 71 67 77 86 53 35 30 29 31 34 41 47 52 58 85 70 72 64 64 63 62 64 63 64 69 73 65
58 51 56 65 60 59 62 57 51 60 72 47 48 51 53 42 38 41 49 48 47 60 63 73 84 81 64 37 34 38 32 31 33 39 39 35 33 31 31 39 46 51 55 62 93 78 68 63 56 53 53 54 56 58
69 65 64 61 57 59 58 49 64 48 48 72 64 68 53 38 36 32 38 40 30 31 39 54 47 44 52 52 36 32 32 34 29 32 38 35 32 29 28 26 27 34 46 52 48 48 68 51 56 49 50 50 50 52
76 70 65 61 61 51 46 43 54 42 36 42 44 61 62 37 33 33 33 32 32 29 27 27 28 30 33 35 44 38 32 36 37 34 31 27 27 30 28 27 25 25 25 26 28 30 32 36 40 43 40 39 40 38
70 69 69 60 58 39 42 55 50 45 51 46 46 41 42 40 46 44 37 34 31 30 42 33 29 31 29 27 27 30 83 28 31 32 38 34 37 44 33 26 28 28 27 28 28 28 30 31 31 32 32 35 36 36
63 62 60 56 53 50 44 44 46 54 49 53 44 40 35 39 48 37 30 31 31 31 32 30 29 26 29 29 31 28 43 28 48 86 82 89 96 74 30 27 27 25 24 25 25 26 30 33 33 35 34 34 34 34

GFSWCAN_sfc_rhum_342.txt.gz
RH
79 77 76 76 76 77 78 80 81 82 82 82 76 75 76 76 78 67 46 36 41 42 31 26 26 28 26 24 28 22 22 20 20 22 18 17 14 12 13 17 19 22 20 19 18 23 24 10 10 13 22 21 21 23
79 79 80 79 78 77 78 79 81 82 84 81 77 75 76 76 78 78 46 34 35 43 35 29 26 24 26 26 29 26 25 25 21 21 18 16 16 13 17 15 12 16 14 18 15 16 19 14 12 12 18 26 25 24
80 80 80 80 78 78 79 79 80 82 82 82 76 76 75 75 78 72 49 47 40 37 32 27 26 23 21 21 21 32 26 23 24 21 29 31 34 16 16 14 15 13 11 14 17 15 13 10 10 20 24 26 24 23
80 81 81 81 80 79 79 79 80 82 83 82 78 76 74 76 79 76 49 43 47 42 40 28 19 26 23 20 24 24 24 23 24 26 30 31 30 16 17 17 20 13 15 18 19 17 17 15 22 22 21 21 22 22
81 81 82 82 82 79 80 80 81 83 83 83 77 76 74 77 80 63 47 46 52 55 59 42 29 24 21 24 27 28 27 29 30 32 30 30 24 23 20 19 20 16 20 18 19 18 28 28 20 22 22 21 20 22
84 84 84 82 84 82 82 82 83 84 84 84 79 77 76 78 80 56 68 70 57 47 57 48 29 29 27 27 30 33 32 33 32 30 28 25 18 21 25 26 20 16 16 14 19 15 15 16 14 20 24 23 20 19
84 84 82 81 81 82 82 83 85 82 84 84 80 80 79 79 59 64 90 82 69 51 60 62 44 30 27 28 28 31 29 32 30 30 31 29 28 26 27 30 22 18 18 21 17 15 18 14 15 14 21 23 25 18
86 86 85 82 82 83 85 82 84 86 81 78 78 81 82 84 79 59 52 77 66 84 69 63 48 38 34 38 40 34 39 35 32 32 30 32 28 29 37 29 24 23 23 22 20 16 14 14 15 15 13 14 19 19
88 88 86 85 85 86 86 83 83 84 86 85 83 82 64 64 58 92 68 70 68 76 88 63 57 75 35 50 55 48 49 48 36 38 35 33 34 40 33 34 28 27 28 28 24 21 20 21 22 20 18 16 16 18
90 90 89 88 88 88 86 86 85 86 86 86 70 84 86 90 80 72 71 84 92 97 95 87 46 66 56 56 86 93 95 87 92 55 46 48 44 38 33 32 32 31 27 30 35 36 33 33 31 29 26 23 23 24
89 90 90 90 90 86 85 87 89 90 87 64 92 95 78 77 69 81 92 93 88 92 76 64 52 61 69 72 96 74 95 93 97 74 65 58 47 42 43 42 40 30 30 30 32 34 35 38 38 39 36 33 29 28
91 91 91 91 90 88 87 88 88 72 88 81 67 59 57 72 77 78 84 85 65 66 57 68 78 80 94 74 91 87 90 87 93 60 71 61 46 45 42 39 38 40 38 38 36 38 38 39 40 44 44 44 38 34
92 92 92 92 91 88 85 86 86 85 80 63 74 68 69 75 92 63 60 58 58 55 63 65 86 82 92 91 93 94 96 83 70 91 69 46 53 64 63 56 50 42 43 48 44 42 43 44 44 46 50 47 45 45
92 91 91 90 90 89 85 84 83 79 73 89 82 100 77 78 57 48 54 66 78 90 84 70 88 81 89 97 92 97 75 75 86 81 74 44 75 76 74 63 56 54 49 47 50 51 50 52 54 55 52 52 51 51
91 90 89 84 86 88 85 83 82 84 93 88 75 85 62 59 58 52 50 52 70 78 79 78 70 68 92 94 96 95 94 92 74 56 59 90 87 84 77 69 64 57 55 55 56 59 62 60 58 57 53 51 52 53
90 90 78 84 84 85 86 85 82 94 95 91 72 73 69 65 69 75 71 69 65 62 60 52 59 66 85 88 96 94 95 86 57 77 69 65 77 78 80 73 70 67 73 71 70 71 70 72 66 60 57 52 52 55
90 62 80 81 84 85 85 91 95 90 89 88 91 71 82 89 91 90 89 88 92 94 95 92 94 85 75 92 90 80 74 79 90 78 71 86 91 90 89 90 90 82 83 86 83 79 80 72 67 63 64 56 47 49
62 72 80 84 80 79 97 94 93 88 89 87 97 95 97 95 93 89 91 96 98 96 92 91 88 89 74 70 73 79 75 59 64 89 96 95 95 94 95 96 94 93 93 91 90 84 83 83 78 66 65 49 48 48
71 74 88 89 88 95 95 93 95 94 91 97 98 96 97 98 94 88 94 97 97 97 98 97 96 92 76 62 74 74 72 75 96 97 97 95 96 97 96 96 96 97 96 94 93 93 75 64 54 56 48 39 40 41
92 90 87 86 86 96 92 96 97 97 95 97 97 97 97 96 92 98 98 98 99 98 98 96 92 90 93 82 85 81 82 92 98 98 97 96 96 97 96 97 98 95 97 96 94 97 65 77 55 49 44 41 41 44
78 70 82 80 86 89 94 96 95 96 97 98 96 96 97 97 98 98 98 98 99 99 98 94 84 85 87 89 85 88 96 99 99 99 98 99 97 99 97 96 94 91 97 98 99 99 92 72 91 64 52 49 43 42
68 81 64 73 82 83 88 78 93 92 97 84 94 96 96 96 96 98 99 98 98 98 98 98 96 98 97 97 96 97 98 98 97 99 99 99 97 98 98 98 98 97 98 98 98 99 99 97 73 64 47 40 45 40
77 76 71 73 80 81 77 70 95 95 97 87 93 94 92 97 98 98 99 98 98 98 99 99 98 97 98 96 96 95 91 91 98 97 94 96 95 96 97 97 98 98 98 98 98 99 99 100 100 88 81 78 71 74
89 74 76 70 68 76 74 89 83 86 94 96 91 90 94 98 94 97 96 98 98 98 98 97 98 98 97 95 92 86 88 89 94 92 89 84 69 93 96 98 97 97 98 98 98 98 98 98 99 98 98 97 98 98
86 77 71 99 58 59 66 78 68 79 79 69 75 89 95 96 96 97 98 98 98 98 98 98 97 94 96 91 92 94 84 91 94 89 67 71 58 62 68 89 97 98 98 97 96 96 96 96 96 96 96 96 96 97
91 51 79 53 56 63 68 62 55 56 52 56 64 68 77 90 93 99 98 98 98 96 96 97 97 92 91 94 95 93 68 72 88 85 56 57 51 59 71 79 90 96 95 95 95 95 93 95 96 94 95 95 99 92
73 55 47 46 56 65 58 49 42 44 49 48 46 58 64 79 85 93 92 84 92 90 90 91 94 92 92 92 93 74 45 51 68 72 56 42 49 56 62 71 85 82 75 67 73 86 91 92 94 94 95 96 96 93
52 54 63 68 68 71 59 45 47 54 53 58 47 57 68 65 78 84 89 58 78 82 86 87 83 64 72 58 33 30 32 27 30 29 28 31 38 51 53 50 58 79 62 64 55 64 83 79 75 79 89 93 93 91
56 46 52 67 53 49 52 58 62 62 69 49 51 57 64 59 58 41 48 62 44 33 36 36 32 31 30 27 31 30 31 33 46 52 50 49 47 41 42 51 55 50 46 48 76 65 58 60 56 54 58 64 74 83
57 49 62 59 54 60 86 60 79 51 41 41 40 72 66 37 33 37 40 33 40 38 29 24 24 25 28 28 29 29 27 30 40 47 53 52 48 46 42 34 36 35 41 46 47 47 61 46 48 40 42 44 49 53
54 54 60 57 66 72 66 48 87 71 52 91 88 55 48 36 32 30 33 39 32 27 31 31 25 23 24 25 27 28 27 25 29 32 34 32 32 31 40 36 32 28 29 32 34 35 36 37 38 38 40 43 44 42
66 65 72 61 68 67 57 48 56 49 46 45 38 42 46 52 45 36 32 43 34 54 96 86 58 45 39 36 26 26 73 23 27 28 31 28 30 32 27 27 30 30 26 28 28 31 34 34 34 34 36 38 38 38
68 58 60 58 72 54 59 59 73 86 72 66 46 32 34 42 47 34 32 31 35 38 81 79 74 57 71 60 51 49 50 35 44 72 72 83 95 72 33 30 30 29 29 27 33 27 30 32 34 36 39 38 34 33

GFSWCAN_sfc_rhum_345.txt.gz
RH
79 78 78 78 79 79 78 77 78 80 82 82 79 77 76 78 82 81 66 55 59 61 49 36 32 40 39 40 52 42 39 34 37 43 39 35 34 26 25 28 31 41 38 36 37 42 36 19 18 27 38 37 34 35
80 79 78 78 80 79 78 77 78 79 82 82 81 75 77 78 82 83 67 49 48 62 50 37 33 31 32 32 43 42 45 44 44 48 47 47 44 33 34 30 23 27 25 37 24 31 26 20 22 36 32 39 37 36
82 81 79 80 81 81 78 77 78 80 81 82 80 76 76 76 81 80 67 59 53 56 44 40 35 28 26 28 27 51 47 35 42 41 53 53 60 46 45 36 33 27 30 35 30 26 30 32 33 36 33 36 33 33
83 81 80 80 80 81 79 79 80 81 82 82 81 77 75 76 81 78 68 55 61 63 59 36 25 32 28 26 30 32 33 34 37 48 53 55 55 44 46 39 39 32 33 40 38 31 30 35 35 32 31 30 30 31
84 82 81 81 80 80 78 78 80 82 83 83 81 77 75 77 83 75 60 56 58 69 72 59 38 28 26 30 32 34 36 42 52 54 55 52 45 42 38 35 35 29 35 40 46 34 42 39 27 29 30 31 30 33
88 86 85 83 81 80 80 81 83 84 83 80 80 78 77 79 83 66 79 63 62 67 69 64 40 37 31 32 35 46 45 50 54 54 51 46 30 36 48 45 35 23 26 30 40 29 25 24 21 19 34 30 26 26
90 88 85 84 83 81 82 82 82 84 83 83 81 80 81 83 75 69 92 79 79 66 82 68 56 38 32 33 40 43 41 51 51 50 50 46 40 42 47 49 32 25 25 29 30 32 36 28 26 24 23 19 28 26
90 90 88 86 85 84 85 84 82 84 85 80 80 82 84 86 84 72 58 73 81 78 73 82 60 53 48 54 60 54 53 53 55 51 49 50 48 46 52 38 38 31 34 32 32 28 26 25 29 28 26 24 24 24
89 90 90 89 88 87 87 85 84 84 86 87 84 82 73 71 78 92 67 70 81 81 92 71 65 86 54 67 65 65 64 63 56 62 56 54 55 62 55 52 44 40 37 36 36 36 36 38 41 38 36 36 35 35
91 91 91 92 91 91 88 85 86 87 88 88 79 85 84 94 77 71 85 94 85 91 77 81 59 75 66 71 81 88 91 87 93 70 63 70 59 44 41 41 46 51 38 39 48 54 48 50 49 49 48 47 48 47
91 92 92 92 92 90 86 86 90 90 84 76 96 98 87 81 87 93 93 92 90 89 74 71 62 67 71 81 95 80 97 95 96 81 76 72 62 72 52 45 41 36 42 44 46 46 43 54 54 53 51 52 48 48
92 92 92 92 92 89 88 89 89 78 93 83 78 71 80 86 88 83 90 83 74 70 66 72 79 81 90 75 90 91 94 92 90 76 82 70 84 84 74 54 56 46 40 39 41 47 48 51 52 56 53 51 50 49
92 91 92 90 91 88 85 86 87 87 80 76 92 72 73 78 92 70 69 70 76 85 82 71 84 76 86 88 96 95 94 85 75 95 82 69 89 86 92 87 73 66 62 56 54 54 54 55 54 53 55 51 50 53
92 92 91 89 87 89 84 84 84 78 77 95 83 99 77 71 60 57 61 81 83 88 93 93 92 91 86 97 95 98 78 87 89 88 87 88 92 89 86 81 80 76 71 71 72 63 60 59 57 57 55 53 54 56
92 92 90 85 82 83 83 85 83 87 90 88 87 89 72 80 72 68 64 81 75 74 86 91 90 90 96 95 96 95 94 95 80 68 92 90 88 87 82 76 72 70 68 67 64 63 63 65 66 65 61 58 57 58
92 90 77 81 83 84 83 81 86 95 95 93 74 77 79 68 76 73 74 77 70 73 71 70 74 79 91 92 98 95 94 86 74 90 77 76 81 83 88 84 81 77 75 74 74 73 72 74 75 72 68 66 64 61
93 79 80 79 86 90 88 94 95 90 91 88 92 83 90 91 90 90 91 88 93 95 95 90 90 78 83 92 91 84 82 91 96 92 75 81 94 96 95 95 91 86 85 83 81 79 79 75 74 76 81 76 70 66
77 78 87 89 92 94 98 97 96 92 90 92 98 96 98 96 94 91 94 96 98 98 96 95 93 92 81 75 85 89 88 87 85 94 96 96 95 95 96 96 95 94 95 94 89 87 89 92 90 84 78 77 76 70
79 82 90 91 91 97 97 97 97 95 94 97 98 97 98 98 96 93 96 96 97 98 99 98 98 96 90 80 87 80 82 92 98 97 96 94 96 96 95 96 95 96 96 96 96 98 96 92 90 83 77 76 76 70
92 90 88 84 86 97 94 98 98 98 97 97 98 98 98 98 96 98 98 99 99 99 99 98 96 96 95 85 92 94 97 97 99 98 97 96 95 95 96 98 97 96 97 95 94 97 87 88 85 78 67 77 78 74
74 80 81 82 87 89 93 97 96 94 97 99 97 99 98 98 99 99 99 99 99 99 99 97 94 86 91 93 94 97 98 99 99 99 98 98 96 98 98 97 97 98 99 98 98 98 98 97 96 76 73 67 62 58
76 80 77 85 90 91 98 97 97 96 99 95 97 98 98 98 98 99 99 99 99 98 99 99 97 98 98 97 96 96 96 97 98 99 99 98 98 98 98 98 99 98 98 98 98 98 98 98 95 92 93 80 69 60
74 76 71 70 84 95 95 94 99 97 98 96 97 97 96 98 99 99 99 99 99 99 99 99 98 97 99 96 97 97 96 97 98 97 96 94 96 97 98 97 98 98 98 98 98 98 99 100 99 91 88 76 62 60
80 73 78 73 82 96 94 93 90 97 97 91 91 92 94 98 96 97 98 98 98 98 98 97 98 98 96 93 96 96 97 98 90 90 89 69 65 95 97 98 98 97 98 99 97 97 97 98 100 99 94 88 87 89
88 85 85 99 73 69 70 69 71 70 73 70 76 83 92 95 95 96 98 97 97 96 96 97 98 97 98 94 91 90 86 89 88 87 70 52 52 72 94 96 96 97 98 97 97 95 96 96 97 98 98 98 98 99
94 60 82 62 62 63 67 58 58 62 56 50 59 68 79 94 95 95 95 92 92 92 91 90 94 95 90 90 84 66 62 58 90 87 67 55 56 58 75 89 94 94 92 95 97 96 96 96 96 96 97 96 99 94
79 72 70 58 78 80 63 50 51 54 57 58 59 61 72 87 90 83 87 87 92 92 92 94 93 92 91 82 55 47 45 44 48 62 61 61 59 54 58 65 72 79 71 74 90 95 94 95 96 96 95 95 97 93
60 60 71 75 76 82 65 56 58 60 62 64 55 67 67 68 83 92 83 75 81 88 87 89 81 68 66 44 43 43 41 39 40 37 36 39 52 57 57 58 57 73 57 62 57 74 84 86 91 94 94 95 97 96
60 54 55 70 62 69 78 71 64 70 79 71 61 61 69 66 61 49 53 56 49 60 64 49 44 39 39 39 39 38 40 39 44 49 49 45 42 40 51 53 54 56 55 53 61 66 63 56 66 82 84 91 94 94
62 52 62 65 72 65 86 90 95 92 73 87 70 77 64 50 40 38 50 54 56 51 49 48 47 48 47 36 33 34 30 31 34 40 46 45 47 44 45 40 44 46 49 49 49 45 58 47 49 42 47 53 61 73
61 62 76 74 70 69 67 64 83 81 53 65 68 60 46 49 41 36 45 61 68 71 63 51 49 46 50 53 50 57 53 38 40 40 42 36 37 41 37 38 36 36 36 36 37 38 40 44 44 44 45 48 52 48
60 82 86 75 85 84 72 71 76 66 58 48 40 40 41 45 47 41 40 71 70 60 89 88 81 57 65 61 49 58 74 47 49 51 48 49 49 50 38 36 34 37 43 36 37 39 45 50 47 44 44 43 40 40
83 81 78 78 78 76 78 79 93 93 81 52 40 38 38 42 54 38 38 42 50 75 59 81 90 79 73 54 56 59 70 51 60 76 78 80 84 68 41 44 45 42 45 38 37 38 41 43 44 45 43 43 43 42